FENGYUN 1C DEB, 30302

Orbit data source: Space-Track

FENGYUN 1C DEB, 30302 is space debris in SSO originally from a launch on Mon, 10 May 1999 UTC launched from the Taiyaun Space Center, China (TSC). Fengyun 1C debris stems from the Chinese weather satellite Fengyun-1C, which was intentionally destroyed by a Chinese anti-satellite missile in 2007. This event dramatically increased the amount of space debris, with thousands of trackable fragments posing hazards to satellites and human spaceflight. The Fengyun 1C debris cloud has become a focal point in discussions about space sustainability and the need for international regulations to prevent the creation of new debris.

Loading next visibility...
Identifier
30302, 1999-025ZP
Orbit
SSO
Country
Flag of CNCN / PRC
Related business
Manufacturer
Unknown
Mission
Spacecraft
Bus & Motor
Unknown
Mass
Unknown
Launch date (UTC)
1999-05-10 (26 years ago)
Launch vehicle
Unknown
Launch site
Taiyaun Space Center, China (TSC)
Object type
Payload
Rocket body
Debris
Shape & HBR
Unknown shape, 0.1 m
Radar Cross Section
Small (<0.1 m²)

Expand to show TLE details & history
Last TLE update: 2 days ago

TLE from 2 days ago
0 FENGYUN 1C DEB
1 30302U 99025ZP  25299.96953440  .00005579  00000-0  28969-2 0  9992
2 30302  98.5495 209.7673 0105268 254.0024 104.9532 14.12292077953830
Epoch: 2025-10-26T23:16Z
TLE epoch observation values (Epoch: 2025-10-26T23:16:07.772Z)
Latitude
-0.00009°
Longitude
-174.84317°
Altitude
874.834 km
Speed
7.404 km/s
True Right ascension
13h 59m 04s
True Declination
0° 00' 00"
Sunlit
Object was in daylight at epoch
Visualization orbit readout
Latitude
Unknown
Longitude
Unknown
Altitude
Unknown
Speed
Unknown
Apparent Right ascension
Unknown
Apparent Declination
Unknown
Sunlit
N/A
Visualization observer readout
Local Sidereal Time
14:42:21
Azimuth
Unknown
Elevation
Unknown
Doppler factor
Unknown
Orbital elements
Apogee altitude
924.775 km
Perigee altitude
772.624 km
Semi-major axis
7,226.837 km
Eccentricity
0.01053
Inclination
98.5495°
RAAN
209.7673°
Arg. of periapsis
254.0024°
True anomaly
106.11461°
Mean anomaly
104.9532°
Eccentric anomaly
105.53431°
Mean motion
3.53281 °/min
Orbital period
101.9 mins
BSTAR
0.0028969
Loading maneuver chart data...
Computing Atmospheric mass density...

Documentation

Showing up to 5 results
|